Location: B�rgermoos
(47.6500°N, 9.0667°E)
Time: 07:42:04
(UTC+00:00)

A-11 Canister half - Pass Details

Date: 06 August 2021
Orbit: 1526 x 1683 km, 47.3° (Epoch: 20 September)

Event Time Altitude Azimuth Distance (km) Brightness Sun altitude
Rises 16:38:40 0° 291° (WNW) 4,896 12.9 20.6°
Reaches altitude 10° 16:42:32 10° 279° (W) 3,884 13.4 20.0°
Maximum altitude 16:50:00 25° 229° (SW) 2,817 11.3 18.7°
Drops below altitude 10° 16:57:17 10° 179° (S) 3,775 11.1 17.5°
Sets 17:01:02 0° 167° (SSE) 4,732 11.4 16.9°
